Skip Page Navigation
NASA JPL Caltech
NASA Logo - Jet Propulsion Laboratory + View the NASA Portal
+ Center for Near-Earth Object Studies
JPL Home Earth Solar System Stars & Galaxies Technology
JPL Solar System Dynamics
BODIES ORBITS EPHEMERIDES TOOLS PHYSICAL DATA DISCOVERY FAQ SITE MAP
IMPORTANT: The SSD Announcement email list is now available. Major changes are coming in the near future, including possible hostname and/or URL changes. To be notified of such changes, subscribe to this email list.

Please visit this page for more details.


JPL Small-Body Database Browser
Search: [ help ]  
487282 (2014 QQ10)
Classification: Main-belt Asteroid          SPK-ID: 2487282
Ephemeris | Orbit Diagram | Orbital Elements | Mission Design | Physical Parameters | Discovery Circumstances ]

[ show orbit diagram ]
Orbital Elements at Epoch 2458600.5 (2019-Apr-27.0) TDB
Reference: JPL 8 (heliocentric ecliptic J2000)
 Element Value Uncertainty (1-sigma)   Units 
e .126864649838705 8.7269e-08  
a 2.628132683501487 1.4935e-07 au
q 2.294715550879415 2.7272e-07 au
i 9.966252981858407 7.7555e-06 deg
node 259.5040257052136 5.7426e-05 deg
peri 18.10075736617642 7.2915e-05 deg
M 71.78328867010616 6.8023e-05 deg
tp 2458290.193975036628
(2018-Jun-20.69397504)
0.00027202 TDB
period 1556.214141987829
4.26
0.00013266
3.632e-07
d
yr
n .2313306313616674 1.9719e-08 deg/d
Q 2.96154981612356 1.683e-07 au
  Orbit Determination Parameters
   # obs. used (total)      53  
   data-arc span      1420 days (3.89 yr)  
   first obs. used      2013-04-07  
   last obs. used      2017-02-25  
   planetary ephem.      DE431  
   SB-pert. ephem.      SB431-N16  
   condition code      0  
   norm. resid. RMS      .5974  
   source      ORB  
   producer      Otto Matic  
   solution date      2017-Apr-09 00:18:58  

Additional Information
 Earth MOID = 1.28007 au 
 Jupiter MOID = 2.15004 au 
 T_jup = 3.368 
[ show covariance matrix ]

Ephemeris | Orbit Diagram | Orbital Elements | Mission Design | Physical Parameters | Discovery Circumstances ]

Physical Parameter Table
Parameter Symbol Value Units Sigma Reference Notes
absolute magnitude H 17.5   n/a MPO393784  

487282 (2014 QQ10)          Discovered 2014-Jun-03 by Pan-STARRS 1 at Haleakala
Reference: Last Updated: 2017-03-14
Ephemeris | Orbit Diagram | Orbital Elements | Mission Design | Physical Parameters | Discovery Circumstances ]
ABOUT SSD CREDITS/AWARDS PRIVACY/COPYRIGHT GLOSSARY LINKS
FirstGov
(server date/time)  
NASA Home Page
Site Manager:   Ryan S. Park
Webmaster  Alan B. Chamberlin